Terug naar catalogus

COSMOS 839 DEB

ActiefUNKNOWN
NORAD 36300·DEBRIS·🇷🇺 Russia

Gelanceerd Jul 8, 1976 vanaf Plesetsk Cosmodrome

Loading…

Volgende Passages (komende 24 uur)

TLE

VersSource: Space-Track

Epoch: Sep 14, 2026, 02:31 UTC

1 36300U 76067BZ  26257.10550708  .00000080  00000-0  48567-3 0  9997
2 36300  65.6814 144.5176 0679970   4.2855 141.9761 12.36225714771955

Volg COSMOS 839 DEB in realtime met AllMySat

Download on the App Store